Fosston, MN

1:35 AM CDT on October 14, 2019 (GMT -0500)
Fosston Municipal

Weather History for KFSE - September, 2019

Change the Weather History Date:

Monday, September 23, 2019

  Actual Average Record
Temperature  
Mean Temperature 58 °F -  
Max Temperature 75 °F 59 °F 91 °F (2007)
Min Temperature 42 °F 37 °F 19 °F (2012)
Degree Days  
Heating Degree Days 6    
Growing Degree Days 8 (Base 50)    
Moisture  
Dew Point 47 °F    
Average Humidity 73    
Maximum Humidity 100    
Minimum Humidity 36    
Precipitation  
Precipitation 0.00 in - - ()
Sea Level Pressure  
Sea Level Pressure 29.88 in    
Wind  
Wind Speed 6 mph ()    
Max Wind Speed 15 mph    
Max Gust Speed 22 mph    
Visibility 10.0 miles    
Events      
Averages and records for this station are not official NWS values.
T = Trace of Precipitation, MM = Missing Value Source: Averaged Metar Reports

Daily Weather History Graph

Daily Weather History Graph

Search for Another Location

Airport or City:

Astronomy

Sep. 23, 2019 Rise Set
Actual Time 7:10 AM CDT 7:19 PM CDT
Civil Twilight 6:40 AM CDT 7:49 PM CDT
Nautical Twilight 6:04 AM CDT 8:25 PM CDT
Astronomical Twilight 5:26 AM CDT 9:02 PM CDT
Moon 12:27 AM CDT (9/23) 4:40 PM CDT (9/23)
Length of Visible Light 13h 09m
Length of Day
12h 08m
Waning Crescent, 33% of the Moon is Illuminated
Sep 23
Waning Crescent
Sep 28
New
Oct 5
First Quarter
Oct 13
Full
Oct 21
Last Quarter

Hourly Weather History & Observations

Time (CDT) Temp. Windchill Dew Point Humidity Pressure Visibility Wind Dir Wind Speed Gust Speed Precip Events Conditions
12:16 AM 48.2 °F - 48.2 °F 100% 29.86 in 10.0 mi SSW 4.6 mph - N/A   Mostly Cloudy
12:35 AM 50.0 °F - 48.2 °F 94% 29.87 in 10.0 mi SSW 5.8 mph - N/A   Scattered Clouds
12:56 AM 50.0 °F - 48.2 °F 94% 29.87 in 10.0 mi SSW 5.8 mph - N/A   Scattered Clouds
1:15 AM 48.2 °F - 46.4 °F 93% 29.87 in 10.0 mi SSW 4.6 mph - N/A   Clear
1:36 AM 48.2 °F - 46.4 °F 93% 29.87 in 10.0 mi SSW 4.6 mph - N/A   Scattered Clouds
1:55 AM 48.2 °F - 46.4 °F 93% 29.87 in 10.0 mi SSW 3.5 mph - N/A   Scattered Clouds
2:00 AM 46.4 °F 44.3 °F 46.4 °F 100% 29.88 in 10.0 mi South 4.6 mph - N/A   Scattered Clouds
2:16 AM 46.4 °F 45.2 °F 44.6 °F 93% 29.88 in 10.0 mi SSW 3.5 mph - N/A   Clear
2:35 AM 46.4 °F 44.3 °F 44.6 °F 93% 29.88 in 10.0 mi SSW 4.6 mph - N/A   Clear
2:40 AM 46.4 °F 44.3 °F 44.6 °F 93% 29.88 in 10.0 mi SSW 4.6 mph - N/A   Clear
2:56 AM 46.4 °F - 44.6 °F 93% 29.88 in 10.0 mi Calm Calm - N/A   Clear
3:15 AM 44.6 °F - 44.6 °F 100% 29.88 in 10.0 mi Calm Calm - N/A   Clear
3:36 AM 44.6 °F 43.1 °F 44.6 °F 100% 29.88 in 10.0 mi South 3.5 mph - N/A   Clear
3:55 AM 44.6 °F 42.2 °F 42.8 °F 93% 29.88 in 10.0 mi South 4.6 mph - N/A   Clear
4:16 AM 44.6 °F 43.1 °F 42.8 °F 93% 29.88 in 10.0 mi South 3.5 mph - N/A   Clear
4:35 AM 44.6 °F 43.1 °F 42.8 °F 93% 29.88 in 10.0 mi SSE 3.5 mph - N/A   Clear
4:40 AM 44.6 °F 43.1 °F 44.6 °F 100% 29.88 in 10.0 mi South 3.5 mph - N/A   Clear
4:56 AM 44.6 °F 42.2 °F 44.6 °F 100% 29.89 in 10.0 mi South 4.6 mph - N/A   Clear
5:15 AM 42.8 °F 40.1 °F 42.8 °F 100% 29.89 in 10.0 mi South 4.6 mph - N/A   Clear
5:20 AM 44.6 °F 42.2 °F 42.8 °F 93% 29.89 in 10.0 mi South 4.6 mph - N/A   Clear
5:36 AM 44.6 °F 42.2 °F 42.8 °F 93% 29.89 in 10.0 mi South 4.6 mph - N/A   Clear
5:55 AM 42.8 °F 40.1 °F 42.8 °F 100% 29.89 in 10.0 mi South 4.6 mph - N/A   Clear
6:16 AM 42.8 °F 39.3 °F 42.8 °F 100% 29.90 in 10.0 mi South 5.8 mph - N/A   Clear
6:35 AM 42.8 °F 38.6 °F 41.0 °F 93% 29.90 in 10.0 mi South 6.9 mph - N/A   Clear
6:56 AM 42.8 °F 39.3 °F 42.8 °F 100% 29.90 in 10.0 mi South 5.8 mph - N/A   Clear
7:15 AM 42.8 °F 39.3 °F 42.8 °F 100% 29.90 in 10.0 mi South 5.8 mph - N/A   Clear
7:36 AM 42.8 °F 39.3 °F 42.8 °F 100% 29.91 in 10.0 mi South 5.8 mph - N/A   Clear
7:55 AM 44.6 °F 40.7 °F 42.8 °F 93% 29.91 in 10.0 mi South 6.9 mph - N/A   Clear
8:00 AM 44.6 °F 41.4 °F 42.8 °F 93% 29.91 in 10.0 mi South 5.8 mph - N/A   Clear
8:16 AM 46.4 °F 43.5 °F 46.4 °F 100% 29.92 in 10.0 mi South 5.8 mph - N/A   Clear
8:35 AM 48.2 °F - 48.2 °F 100% 29.92 in 10.0 mi South 5.8 mph - N/A   Clear
8:40 AM 48.2 °F - 48.2 °F 100% 29.92 in 10.0 mi South 6.9 mph - N/A   Clear
9:15 AM 51.8 °F - 50.0 °F 94% 29.92 in 10.0 mi South 6.9 mph - N/A   Clear
9:36 AM 53.6 °F - 51.8 °F 94% 29.92 in 10.0 mi South 8.1 mph - N/A   Clear
9:55 AM 55.4 °F - 51.8 °F 88% 29.92 in 10.0 mi South 8.1 mph - N/A   Clear
10:16 AM 57.2 °F - 51.8 °F 82% 29.92 in 10.0 mi South 9.2 mph - N/A   Clear
10:35 AM 60.8 °F - 50.0 °F 68% 29.92 in 10.0 mi South 8.1 mph - N/A   Clear
10:56 AM 62.6 °F - 51.8 °F 68% 29.92 in 10.0 mi South 10.4 mph - N/A   Clear
11:15 AM 62.6 °F - 51.8 °F 68% 29.92 in 10.0 mi South 10.4 mph - N/A   Clear
11:20 AM 64.4 °F - 51.8 °F 64% 29.92 in 10.0 mi SSW 8.1 mph - N/A   Clear
11:35 AM 64.4 °F - 51.8 °F 64% 29.92 in 10.0 mi South 11.5 mph - N/A   Clear
11:55 AM 66.2 °F - 51.8 °F 60% 29.92 in 10.0 mi SSW 11.5 mph 16.1 mph N/A   Clear
12:00 PM 66.2 °F - 51.8 °F 60% 29.92 in 10.0 mi SSW 9.2 mph 16.1 mph N/A   Clear
12:16 PM 66.2 °F - 51.8 °F 60% 29.92 in 10.0 mi SSW 11.5 mph - N/A   Clear
12:35 PM 69.8 °F - 51.8 °F 53% 29.92 in 10.0 mi SW 13.8 mph - N/A   Clear
12:56 PM 69.8 °F - 50.0 °F 49% 29.91 in 10.0 mi SW 11.5 mph - N/A   Clear
1:15 PM 71.6 °F - 50.0 °F 46% 29.91 in 10.0 mi SW 12.7 mph 16.1 mph N/A   Clear
1:36 PM 71.6 °F - 51.8 °F 50% 29.90 in 10.0 mi SSW 9.2 mph 16.1 mph N/A   Clear
1:55 PM 73.4 °F - 48.2 °F 41% 29.90 in 10.0 mi SW 12.7 mph - N/A   Clear
2:00 PM 73.4 °F - 48.2 °F 41% 29.90 in 10.0 mi WSW 11.5 mph - N/A   Clear
2:16 PM 73.4 °F - 48.2 °F 41% 29.89 in 10.0 mi WSW 10.4 mph 17.3 mph N/A   Clear
2:35 PM 73.4 °F - 48.2 °F 41% 29.89 in 10.0 mi WSW 13.8 mph 21.9 mph N/A   Clear
2:40 PM 73.4 °F - 51.8 °F 47% 29.89 in 10.0 mi SW 10.4 mph 21.9 mph N/A   Clear
2:56 PM 73.4 °F - 48.2 °F 41% 29.89 in 10.0 mi WSW 15.0 mph 18.4 mph N/A   Clear
3:15 PM 73.4 °F - 48.2 °F 41% 29.89 in 10.0 mi WSW 15.0 mph 19.6 mph N/A   Clear
3:36 PM 73.4 °F - 46.4 °F 38% 29.89 in 10.0 mi WSW 11.5 mph 19.6 mph N/A   Clear
3:55 PM 75.2 °F - 50.0 °F 41% 29.88 in 10.0 mi SW 11.5 mph - N/A   Clear
4:00 PM 75.2 °F - 50.0 °F 41% 29.88 in 10.0 mi SW 15.0 mph 19.6 mph N/A   Clear
4:16 PM 75.2 °F - 46.4 °F 36% 29.88 in 10.0 mi WSW 11.5 mph - N/A   Clear
4:35 PM 75.2 °F - 50.0 °F 41% 29.87 in 10.0 mi SW 15.0 mph 18.4 mph N/A   Clear
4:40 PM 75.2 °F - 48.2 °F 38% 29.87 in 10.0 mi SW 13.8 mph 19.6 mph N/A   Clear
4:56 PM 75.2 °F - 46.4 °F 36% 29.87 in 10.0 mi SW 9.2 mph 18.4 mph N/A   Clear
5:15 PM 75.2 °F - 46.4 °F 36% 29.87 in 10.0 mi SW 8.1 mph - N/A   Clear
5:36 PM 73.4 °F - 50.0 °F 44% 29.87 in 10.0 mi SW 12.7 mph 18.4 mph N/A   Clear
5:55 PM 73.4 °F - 46.4 °F 38% 29.87 in 10.0 mi SSW 13.8 mph - N/A   Clear
6:16 PM 71.6 °F - 48.2 °F 43% 29.86 in 10.0 mi SW 9.2 mph - N/A   Clear
6:35 PM 71.6 °F - 51.8 °F 50% 29.86 in 10.0 mi SW 6.9 mph - N/A   Clear
6:56 PM 68.0 °F - 48.2 °F 49% 29.86 in 10.0 mi SW 5.8 mph - N/A   Clear
7:15 PM 62.6 °F - 46.4 °F 55% 29.85 in 10.0 mi South 4.6 mph - N/A   Clear
7:20 PM 60.8 °F - 46.4 °F 59% 29.85 in 10.0 mi South 4.6 mph - N/A   Clear
7:36 PM 59.0 °F - 48.2 °F 67% 29.85 in 10.0 mi South 5.8 mph - N/A   Clear
7:55 PM 57.2 °F - 46.4 °F 67% 29.85 in 10.0 mi South 6.9 mph - N/A   Clear
8:16 PM 57.2 °F - 46.4 °F 67% 29.84 in 10.0 mi SSE 5.8 mph - N/A   Clear
8:35 PM 57.2 °F - 46.4 °F 67% 29.84 in 10.0 mi SSE 8.1 mph - N/A   Clear
8:40 PM 57.2 °F - 46.4 °F 67% 29.84 in 10.0 mi SSE 8.1 mph - N/A   Clear
8:56 PM 57.2 °F - 46.4 °F 67% 29.84 in 10.0 mi SSE 8.1 mph - N/A   Clear
9:15 PM 55.4 °F - 46.4 °F 72% 29.84 in 10.0 mi South 5.8 mph - N/A   Clear
9:36 PM 53.6 °F - 46.4 °F 77% 29.84 in 10.0 mi South 6.9 mph - N/A   Clear
9:55 PM 53.6 °F - 46.4 °F 77% 29.83 in 10.0 mi South 6.9 mph - N/A   Clear
10:16 PM 53.6 °F - 46.4 °F 77% 29.83 in 10.0 mi South 6.9 mph - N/A   Clear
10:35 PM 53.6 °F - 46.4 °F 77% 29.82 in 10.0 mi South 8.1 mph - N/A   Clear
10:55 PM 53.6 °F - 46.4 °F 77% 29.82 in 10.0 mi South 8.1 mph - N/A   Clear
11:15 PM 53.6 °F - 46.4 °F 77% 29.81 in 10.0 mi South 9.2 mph - N/A   Clear
11:20 PM 53.6 °F - 46.4 °F 77% 29.81 in 10.0 mi South 9.2 mph - N/A   Clear
11:36 PM 53.6 °F - 46.4 °F 77% 29.80 in 10.0 mi South 9.2 mph - N/A   Clear
11:55 PM 53.6 °F - 46.4 °F 77% 29.80 in 10.0 mi South 9.2 mph - N/A   Clear
11:56 PM 53.6 °F - 46.4 °F 77% 29.80 in 10.0 mi South 9.2 mph - N/A   Clear